Showing default

OPS 5712 (P/L 152), 2873

Orbit data source: Space-Track

OPS 5712 (P/L 152), 2873 is an American payload satellite in LEO that was launched on Wed, 31 May 1967 UTC via a THOR SLV-2 AGENA D launch vehicle from the Air Force Western Test Range (AFWTR). Payload-class satellites include a variety of spacecraft equipped with specific instruments for various scientific and technological missions. These include communications satellites like Starlink; space stations such as the ISS; scientific satellites like the Hubble; Earth observation satellites from companies like Planet Labs, Umbra, and HawkEye 360; GPS; miniature CubeSats for education and research; and military/defense satellites.

Loading next visibility...
Identifier
2873, 1967-053G
Orbit
LEO
Country
Flag of USUS
Related business
Manufacturer
NRL
Mission
Spacecraft
Bus & Motor
NRL 24", Unknown motor
Mass
52 kg wet, 52 kg dry
Launch date (UTC)
1967-05-31 (59 years ago)
Launch vehicle
THOR SLV-2 AGENA D
Launch site
Air Force Western Test Range (AFWTR)
Object type
Payload
Rocket body
Debris
Shape & HBR
Unknown
Radar Cross Section
Medium (>0.1 m² and <1 m²)

Expand to show TLE details & history
Last TLE update: 6 hours ago

TLE from 6 hours ago
0 OPS 5712 (P/L 152)
1 02873U 67053G   26177.97364436  .00000081  00000-0  94061-4 0  9999
2 02873  69.9748  28.9966 0006529 158.6825 311.0737 13.98529387  9873
Epoch: 2026-06-26T23:22Z
TLE epoch observation values (Epoch: 2026-06-26T23:22:02.872Z)
Latitude
62.30438°
Longitude
-100.29525°
Altitude
905.845 km
Speed
7.407 km/s
True Right ascension
11h 01m 14s
True Declination
62° 09' 56"
Sunlit
Object was in daylight at epoch
Visualization orbit readout
Latitude
Unknown
Longitude
Unknown
Altitude
Unknown
Speed
Unknown
Apparent Right ascension
Unknown
Apparent Declination
Unknown
Sunlit
N/A
Visualization observer readout
Local Sidereal Time
16:53:07
Azimuth
Unknown
Elevation
Unknown
Doppler factor
Unknown
Orbital elements
Apogee altitude
901.685 km
Perigee altitude
892.185 km
Semi-major axis
7,275.072 km
Eccentricity
0.00065
Inclination
69.9748°
RAAN
28.9966°
Arg. of periapsis
158.6825°
True anomaly
311.01727°
Mean anomaly
311.0737°
Eccentric anomaly
311.04549°
Mean motion
3.49774 °/min
Orbital period
102.92 mins
BSTAR
0.000094061
Loading maneuver chart data...
Computing Atmospheric mass density...
Loading historical data...
Loading historical data...
Loading historical data...
Loading historical data...
Loading historical data...
Loading historical data...
Loading historical data...

Documentation

Showing up to 5 results
|